When you browse on this site, cookies collect data to enhance your experience and personalize the content and advertising you see.
Visit our Privacy Policy to learn more. By continuing to use the site, you agree to this use of cookies and data.

Hourly Weather Nanjing

Today, 9 July, Thursday

Time Temperature Precipitation Wind Pressure Humidity
00:00 +26°C° 0 mm 4 mps 748 mmHg 90%
01:00 +26°C° 0 mm 3 mps 748 mmHg 89%
02:00 +26°C° 0 mm 3 mps 747 mmHg 88%
03:00 +25°C° 0 mm 3 mps 747 mmHg 88%
04:00 +25°C° 0 mm 3 mps 747 mmHg 89%
05:00 +25°C° 0 mm 3 mps 747 mmHg 90%
06:00 +25°C° 0 mm 3 mps 747 mmHg 89%
07:00 +26°C° 0 mm 3 mps 747 mmHg 88%
08:00 +27°C° 0 mm 3 mps 748 mmHg 88%
09:00 +27°C° 0 mm 3 mps 748 mmHg 85%
10:00 +28°C° 0 mm 3 mps 748 mmHg 81%
11:00 +29°C° 0 mm 4 mps 748 mmHg 77%
12:00 +29°C° 0.1 mm 4 mps 747 mmHg 77%
13:00 +30°C° 0.1 mm 4 mps 747 mmHg 76%
14:00 +30°C° 0 mm 4 mps 746 mmHg 79%
15:00 +30°C° 0.1 mm 4 mps 746 mmHg 78%
16:00 +30°C° 0.1 mm 4 mps 746 mmHg 77%
17:00 +30°C° 0.1 mm 4 mps 746 mmHg 76%
18:00 +29°C° 0.1 mm 4 mps 747 mmHg 80%
19:00 +27°C° 0.1 mm 4 mps 747 mmHg 84%
20:00 +26°C° 0.1 mm 3 mps 747 mmHg 88%
21:00 +26°C° 0 mm 3 mps 748 mmHg 89%
22:00 +25°C° 0 mm 3 mps 748 mmHg 91%
23:00 +24°C° 0 mm 2 mps 748 mmHg 92%

Tomorrow, 10 July, Friday

Time Temperature Precipitation Wind Pressure Humidity
00:00 +24°C° 0 mm 2 mps 748 mmHg 92%
01:00 +24°C° 0 mm 2 mps 748 mmHg 92%
02:00 +23°C° 0 mm 1 mps 748 mmHg 92%
03:00 +23°C° 0 mm 1 mps 748 mmHg 92%
04:00 +23°C° 0 mm 1 mps 748 mmHg 92%
05:00 +23°C° 0 mm 1 mps 749 mmHg 92%
06:00 +24°C° 0 mm 1 mps 749 mmHg 88%
07:00 +25°C° 0 mm 2 mps 749 mmHg 84%
08:00 +26°C° 0 mm 2 mps 749 mmHg 80%
09:00 +27°C° 0 mm 2 mps 749 mmHg 76%
10:00 +29°C° 0 mm 2 mps 750 mmHg 72%
11:00 +30°C° 0 mm 2 mps 750 mmHg 68%
12:00 +30°C° 0 mm 2 mps 750 mmHg 66%
13:00 +31°C° 0 mm 2 mps 749 mmHg 63%
14:00 +32°C° 0 mm 2 mps 749 mmHg 61%
15:00 +33°C° 0 mm 3 mps 749 mmHg 62%
16:00 +33°C° 0 mm 3 mps 749 mmHg 64%
17:00 +31°C° 0 mm 3 mps 749 mmHg 66%
18:00 +30°C° 0 mm 3 mps 749 mmHg 70%
19:00 +28°C° 0 mm 3 mps 749 mmHg 75%
20:00 +27°C° 0 mm 3 mps 749 mmHg 79%
21:00 +27°C° 0 mm 3 mps 749 mmHg 81%
22:00 +26°C° 0 mm 3 mps 750 mmHg 84%
23:00 +26°C° 0 mm 3 mps 750 mmHg 86%

Day after tomorrow, 11 July, Saturday

Time Temperature Precipitation Wind Pressure Humidity
00:00 +25°C° 0 mm 3 mps 750 mmHg 86%
01:00 +25°C° 0 mm 3 mps 749 mmHg 87%
02:00 +25°C° 0 mm 3 mps 749 mmHg 88%
03:00 +25°C° 0.1 mm 3 mps 749 mmHg 89%
04:00 +25°C° 0.1 mm 3 mps 749 mmHg 91%
05:00 +25°C° 0.1 mm 3 mps 749 mmHg 92%
06:00 +25°C° 1.7 mm 3 mps 749 mmHg 92%
07:00 +26°C° 1.7 mm 4 mps 749 mmHg 91%
08:00 +26°C° 1.7 mm 4 mps 750 mmHg 90%
09:00 +26°C° 1.9 mm 4 mps 750 mmHg 92%
10:00 +26°C° 1.9 mm 4 mps 750 mmHg 93%
11:00 +26°C° 1.9 mm 4 mps 750 mmHg 94%
12:00 +26°C° 4.4 mm 4 mps 750 mmHg 95%
13:00 +26°C° 4.4 mm 4 mps 749 mmHg 95%
14:00 +26°C° 4.4 mm 3 mps 749 mmHg 96%
15:00 +27°C° 1.2 mm 3 mps 749 mmHg 96%
16:00 +27°C° 1.2 mm 3 mps 749 mmHg 95%
17:00 +27°C° 1.2 mm 3 mps 749 mmHg 95%
18:00 +27°C° 0.3 mm 3 mps 749 mmHg 95%
19:00 +26°C° 0.3 mm 3 mps 749 mmHg 95%
20:00 +26°C° 0.3 mm 3 mps 749 mmHg 95%
21:00 +26°C° 0.9 mm 3 mps 749 mmHg 95%
22:00 +26°C° 0.9 mm 4 mps 749 mmHg 95%
23:00 +26°C° 0.9 mm 4 mps 749 mmHg 95%

12 July, Sunday

Time Temperature Precipitation Wind Pressure Humidity
00:00 +26°C° 0.4 mm 4 mps 749 mmHg 94%
01:00 +26°C° 0.4 mm 4 mps 748 mmHg 94%
02:00 +26°C° 0.4 mm 4 mps 748 mmHg 93%
03:00 +26°C° 0.3 mm 4 mps 747 mmHg 93%
04:00 +26°C° 0.3 mm 4 mps 747 mmHg 92%
05:00 +26°C° 0.3 mm 4 mps 747 mmHg 92%
06:00 +26°C° 0.1 mm 4 mps 747 mmHg 91%
07:00 +27°C° 0.1 mm 3 mps 747 mmHg 91%
08:00 +27°C° 0.1 mm 3 mps 747 mmHg 90%
09:00 +28°C° 0.2 mm 4 mps 747 mmHg 86%
10:00 +30°C° 0.2 mm 5 mps 747 mmHg 82%
11:00 +32°C° 0.2 mm 6 mps 747 mmHg 78%
12:00 +33°C° 0.3 mm 6 mps 746 mmHg 75%
13:00 +34°C° 0.3 mm 7 mps 746 mmHg 72%
14:00 +35°C° 0.3 mm 8 mps 746 mmHg 68%
15:00 +34°C° 0.2 mm 7 mps 746 mmHg 72%
16:00 +33°C° 0.2 mm 6 mps 746 mmHg 77%
17:00 +32°C° 0.2 mm 6 mps 746 mmHg 81%
18:00 +29°C° 1.2 mm 5 mps 746 mmHg 84%
19:00 +28°C° 1.2 mm 5 mps 747 mmHg 88%
20:00 +26°C° 1.2 mm 5 mps 747 mmHg 92%
21:00 +25°C° 2.2 mm 5 mps 747 mmHg 93%
22:00 +25°C° 2.2 mm 5 mps 748 mmHg 93%
23:00 +23°C° 2.2 mm 5 mps 748 mmHg 93%

13 July, Monday

Time Temperature Precipitation Wind Pressure Humidity
00:00 +23°C° 0.5 mm 4 mps 748 mmHg 93%
01:00 +23°C° 0.5 mm 4 mps 748 mmHg 93%
02:00 +23°C° 0.5 mm 4 mps 748 mmHg 93%
03:00 +23°C° 0.4 mm 4 mps 748 mmHg 92%
04:00 +23°C° 0.4 mm 4 mps 748 mmHg 92%
05:00 +22°C° 0.4 mm 4 mps 748 mmHg 92%
06:00 +22°C° 0.2 mm 4 mps 749 mmHg 90%
07:00 +23°C° 0.2 mm 5 mps 749 mmHg 89%
08:00 +23°C° 0.2 mm 5 mps 750 mmHg 87%
09:00 +23°C° 0 mm 5 mps 750 mmHg 84%
10:00 +25°C° 0 mm 5 mps 750 mmHg 81%
11:00 +26°C° 0 mm 6 mps 750 mmHg 78%
12:00 +27°C° 0 mm 6 mps 750 mmHg 77%
13:00 +28°C° 0 mm 6 mps 750 mmHg 75%
14:00 +29°C° 0 mm 6 mps 750 mmHg 73%
15:00 +29°C° 0 mm 5 mps 750 mmHg 74%
16:00 +28°C° 0 mm 5 mps 750 mmHg 75%
17:00 +28°C° 0 mm 5 mps 750 mmHg 76%
18:00 +27°C° 0 mm 4 mps 750 mmHg 78%
19:00 +26°C° 0 mm 3 mps 751 mmHg 81%
20:00 +25°C° 0 mm 3 mps 751 mmHg 83%
21:00 +25°C° 0 mm 3 mps 751 mmHg 85%
22:00 +25°C° 0 mm 2 mps 752 mmHg 86%
23:00 +24°C° 0 mm 2 mps 752 mmHg 88%

14 July, Tuesday

Time Temperature Precipitation Wind Pressure Humidity
00:00 +24°C° 0 mm 2 mps 752 mmHg 89%
01:00 +24°C° 0 mm 2 mps 751 mmHg 90%
02:00 +23°C° 0 mm 2 mps 751 mmHg 91%
03:00 +23°C° 0 mm 2 mps 751 mmHg 89%
04:00 +23°C° 0 mm 1 mps 751 mmHg 88%
05:00 +23°C° 0 mm 1 mps 751 mmHg 86%
06:00 +24°C° 0 mm 1 mps 752 mmHg 83%
07:00 +24°C° 0 mm 1 mps 752 mmHg 79%
08:00 +25°C° 0 mm 1 mps 752 mmHg 75%
09:00 +26°C° 0 mm 1 mps 752 mmHg 70%
10:00 +28°C° 0 mm 2 mps 752 mmHg 65%
11:00 +29°C° 0 mm 2 mps 752 mmHg 60%
12:00 +29°C° 0 mm 2 mps 752 mmHg 58%
13:00 +30°C° 0 mm 2 mps 752 mmHg 56%
14:00 +31°C° 0 mm 2 mps 751 mmHg 55%
15:00 +30°C° 0 mm 2 mps 751 mmHg 59%
16:00 +30°C° 0 mm 2 mps 751 mmHg 63%
17:00 +29°C° 0 mm 2 mps 750 mmHg 68%
18:00 +28°C° 0 mm 2 mps 751 mmHg 70%
19:00 +27°C° 0 mm 2 mps 751 mmHg 73%
20:00 +26°C° 0 mm 2 mps 751 mmHg 75%
21:00 +25°C° 0 mm 1 mps 751 mmHg 77%
22:00 +25°C° 0 mm 1 mps 751 mmHg 79%
23:00 +25°C° 0 mm 1 mps 752 mmHg 81%
Show more